FW0245 Weather Reports


Display with metric or nautical units.
time (UTC)temp
F
wind
direction
speed
MPH
gust
MPH
rain 1hr
in
rain 24hr
in
rain mn
in
humidity
%
barometer
mb
20260508185026 63 261 0.0 9.0 0.00 0.02 0.02 56 1012.3
20260508184527 63 247 1.0 9.0 0.00 0.02 0.02 58 1012.2
20260508184026 63 228 0.0 7.0 0.00 0.02 0.02 56 1012.2
20260508183526 64 242 0.0 11.0 0.00 0.02 0.02 57 1012.3
20260508183031 64 254 0.0 9.0 0.00 0.02 0.02 58 1012.3
20260508182525 64 235 0.0 6.0 0.00 0.02 0.02 56 1012.4
20260508182025 64 236 0.0 1.0 0.00 0.02 0.02 57 1012.3
20260508181524 64 173 0.0 1.0 0.00 0.02 0.02 59 1012.3
20260508181024 64 229 0.0 1.0 0.00 0.02 0.02 58 1012.5
20260508180522 65 236 0.0 2.0 0.00 0.02 0.02 59 1012.6
20260508180023 65 176 0.0 4.0 0.00 0.02 0.02 66 1012.7
20260508175521 65 234 0.0 10.0 0.00 0.02 0.02 60 1012.8
20260508175022 64 255 0.0 10.0 0.00 0.02 0.02 59 1013.0
20260508174520 64 238 0.0 7.0 0.00 0.02 0.02 58 1013.1
20260508174022 63 360 0.0 3.0 0.00 0.02 0.02 59 1013.3
20260508173518 63 240 0.0 7.0 0.00 0.02 0.02 57 1013.4
20260508173016 63 240 0.0 13.0 0.00 0.02 0.02 62 1013.6
20260508172517 63 251 6.0 13.0 0.00 0.02 0.02 60 1013.7
20260508172013 62 290 1.0 14.0 0.00 0.02 0.02 59 1013.9
20260508171515 62 240 1.0 14.0 0.00 0.02 0.02 58 1014.0
20260508171011 62 271 5.0 15.0 0.00 0.02 0.02 57 1014.1
20260508170510 62 256 0.0 15.0 0.00 0.02 0.02 58 1014.4
20260508170010 61 228 0.0 13.0 0.00 0.02 0.02 63 1014.4
20260508165508 61 248 2.0 13.0 0.00 0.02 0.02 59 1014.6
20260508165008 61 247 4.0 13.0 0.00 0.02 0.02 61 1014.9
20260508164507 60 317 2.0 13.0 0.00 0.02 0.02 61 1015.1
20260508164005 60 263 3.0 15.0 0.00 0.02 0.02 59 1015.0
20260508163505 59 239 4.0 15.0 0.00 0.02 0.02 61 1015.1
20260508163002 59 245 6.0 17.0 0.00 0.02 0.02 60 1015.1
20260508162502 58 262 6.0 17.0 0.00 0.02 0.02 60 1015.0
20260508162001 58 271 9.0 18.0 0.00 0.02 0.02 58 1014.9
20260508161602 58 276 9.0 18.0 0.00 0.02 0.02 58 1015.0
20260508161102 59 273 7.0 18.0 0.00 0.02 0.02 60 1015.0
20260508160558 58 269 10.0 16.0 0.00 0.02 0.02 60 1014.8
20260508160058 58 237 6.0 16.0 0.00 0.02 0.02 59 1014.8
20260508155559 58 308 8.0 16.0 0.00 0.02 0.02 61 1014.9
20260508155057 58 272 8.0 16.0 0.00 0.02 0.02 62 1015.1
20260508154612 58 261 3.0 15.0 0.00 0.02 0.02 62 1014.9
20260508154054 57 360 2.0 15.0 0.00 0.02 0.02 66 1014.9
20260508153554 56 267 0.0 9.0 0.00 0.02 0.02 63 1015.0
20260508153053 56 261 0.0 9.0 0.00 0.02 0.02 64 1015.0
20260508152552 56 257 0.0 4.0 0.00 0.02 0.02 65 1015.1
20260508152051 56 248 0.0 8.0 0.00 0.02 0.02 64 1015.1
20260508151553 56 242 1.0 8.0 0.00 0.02 0.02 64 1015.0
20260508151050 56 267 0.0 12.0 0.00 0.02 0.02 66 1015.1
20260508150549 54 232 0.0 12.0 0.00 0.02 0.02 68 1015.1
20260508150058 53 241 0.0 3.0 0.00 0.02 0.02 66 1015.1
20260508145546 53 254 0.0 7.0 0.00 0.02 0.02 66 1015.1
20260508145045 53 245 0.0 7.0 0.00 0.02 0.02 67 1015.1
20260508144543 52 235 0.0 6.0 0.00 0.02 0.02 67 1015.1
20260508144046 52 248 0.0 4.0 0.00 0.02 0.02 66 1015.1
20260508143542 52 219 0.0 2.0 0.00 0.02 0.02 68 1015.1
20260508143056 52 257 0.0 2.0 0.00 0.02 0.02 68 1015.1
20260508142540 52 246 0.0 1.0 0.00 0.02 0.02 69 1015.0
20260508142041 52 244 0.0 0.0 0.00 0.02 0.02 70 1015.1
20260508141538 52 236 0.0 1.0 0.00 0.02 0.02 69 1015.1
20260508141037 52 236 0.0 4.0 0.00 0.02 0.02 69 1015.1
20260508140535 52 236 0.0 4.0 0.00 0.02 0.02 68 1015.1
20260508140036 52 248 0.0 6.0 0.00 0.02 0.02 67 1015.1
20260508135533 52 273 0.0 5.0 0.00 0.02 0.02 67 1015.3
20260508135032 52 227 0.0 4.0 0.00 0.02 0.02 67 1015.4
20260508134530 52 257 0.0 4.0 0.00 0.02 0.02 69 1015.4
20260508134028 52 228 0.0 3.0 0.00 0.02 0.02 69 1015.2
20260508133528 51 259 0.0 4.0 0.00 0.02 0.02 69 1015.3
20260508133027 51 245 0.0 4.0 0.00 0.02 0.02 69 1015.3
20260508132526 51 244 0.0 4.0 0.00 0.02 0.02 70 1015.3
20260508132025 51 218 0.0 2.0 0.00 0.02 0.02 70 1015.4
20260508131524 50 254 0.0 0.0 0.00 0.02 0.02 73 1015.3
20260508131024 50 242 0.0 0.0 0.00 0.02 0.02 74 1015.3
20260508130523 50 238 0.0 0.0 0.00 0.02 0.02 74 1015.3
20260508130023 50 236 0.0 0.0 0.00 0.02 0.02 74 1015.4
20260508125522 50 232 0.0 0.0 0.00 0.02 0.02 74 1015.3
20260508125021 50 248 0.0 0.0 0.00 0.02 0.02 74 1015.3
20260508124522 49 244 0.0 0.0 0.00 0.02 0.02 73 1015.3
20260508124020 49 238 0.0 0.0 0.00 0.02 0.02 75 1015.3
20260508123520 49 239 0.0 0.0 0.00 0.02 0.02 75 1015.3
20260508123019 49 246 0.0 0.0 0.00 0.02 0.02 75 1015.3
20260508122518 49 237 0.0 0.0 0.00 0.02 0.02 76 1015.2
20260508122018 49 243 0.0 0.0 0.00 0.02 0.02 75 1015.3
20260508121519 49 244 0.0 0.0 0.00 0.02 0.02 76 1015.3
20260508121019 48 246 0.0 0.0 0.00 0.02 0.02 77 1015.3
20260508120518 48 247 0.0 0.0 0.00 0.02 0.02 76 1015.3
20260508120017 48 173 0.0 0.0 0.00 0.02 0.02 75 1015.1
20260508115516 48 242 0.0 0.0 0.00 0.02 0.02 75 1015.2
20260508115014 48 225 0.0 0.0 0.00 0.02 0.02 75 1015.0
20260508114513 48 240 0.0 0.0 0.00 0.02 0.02 75 1014.9
20260508114012 48 246 0.0 0.0 0.00 0.02 0.02 75 1015.0
20260508113514 47 234 0.0 0.0 0.00 0.02 0.02 75 1014.9
20260508113014 47 225 0.0 0.0 0.00 0.02 0.02 75 1014.9
20260508112511 47 249 0.0 0.0 0.00 0.02 0.02 75 1014.8
20260508112011 47 217 0.0 0.0 0.00 0.02 0.02 75 1014.9
20260508111512 47 241 0.0 0.0 0.00 0.02 0.02 75 1014.7
20260508111014 47 254 0.0 0.0 0.00 0.02 0.02 74 1014.7
20260508110510 47 251 0.0 0.0 0.00 0.02 0.02 74 1014.6
20260508110009 47 236 0.0 0.0 0.00 0.02 0.02 74 1014.7
20260508105509 47 227 0.0 0.0 0.00 0.02 0.02 73 1014.8
20260508105009 47 245 0.0 0.0 0.00 0.02 0.02 74 1014.7
20260508104509 47 256 0.0 0.0 0.00 0.02 0.02 73 1014.7
20260508104008 47 244 0.0 0.0 0.00 0.02 0.02 73 1014.7
20260508103506 46 200 0.0 0.0 0.00 0.02 0.02 73 1014.6
20260508103005 46 240 0.0 1.0 0.00 0.02 0.02 73 1014.7
20260508102504 46 233 0.0 1.0 0.00 0.02 0.02 73 1014.6
20260508102004 46 239 0.0 4.0 0.00 0.02 0.02 74 1014.7
20260508101505 46 241 0.0 3.0 0.00 0.02 0.02 74 1014.7
20260508101004 45 235 0.0 2.0 0.00 0.02 0.02 75 1014.7
20260508100502 45 244 0.0 2.0 0.00 0.02 0.02 76 1014.6
20260508100006 45 244 0.0 0.0 0.00 0.02 0.02 77 1014.7
20260508095603 45 238 0.0 0.0 0.00 0.02 0.02 77 1014.7
20260508095002 45 230 0.0 0.0 0.00 0.02 0.02 77 1014.5
20260508094502 45 243 0.0 0.0 0.00 0.02 0.02 77 1014.5
20260508094004 45 248 0.0 0.0 0.00 0.02 0.02 78 1014.6
20260508093501 45 207 0.0 0.0 0.00 0.02 0.02 78 1014.4
20260508093001 45 244 0.0 0.0 0.00 0.02 0.02 78 1014.6
20260508092601 45 227 0.0 0.0 0.00 0.02 0.02 78 1014.5
20260508092100 45 236 0.0 0.0 0.00 0.02 0.02 78 1014.5
20260508091609 45 236 0.0 0.0 0.00 0.02 0.02 78 1014.6
20260508091101 45 243 0.0 0.0 0.00 0.02 0.02 78 1014.7
20260508090600 45 243 0.0 0.0 0.00 0.02 0.02 79 1014.7
20260508090106 45 243 0.0 0.0 0.00 0.02 0.02 79 1014.6
20260508085558 45 244 0.0 0.0 0.00 0.02 0.02 79 1014.6
20260508085100 45 252 0.0 0.0 0.00 0.02 0.02 80 1014.7
20260508084614 44 250 0.0 0.0 0.00 0.02 0.02 80 1014.8
20260508084058 44 246 0.0 0.0 0.00 0.02 0.02 81 1014.7
20260508083558 44 246 0.0 0.0 0.00 0.02 0.02 82 1014.7
20260508083108 44 246 0.0 0.0 0.00 0.02 0.02 82 1014.7
20260508082556 44 246 0.0 0.0 0.00 0.02 0.02 82 1014.8
20260508082056 44 246 0.0 0.0 0.00 0.02 0.02 83 1014.8
20260508081556 44 245 0.0 2.0 0.00 0.02 0.02 83 1014.7
20260508081056 44 243 0.0 2.0 0.00 0.02 0.02 84 1014.8
20260508080555 44 247 0.0 0.0 0.00 0.02 0.02 84 1014.8
20260508080111 44 247 0.0 0.0 0.00 0.02 0.02 84 1014.8
20260508075554 44 247 0.0 0.0 0.00 0.02 0.02 84 1014.8
20260508075053 44 247 0.0 0.0 0.00 0.02 0.02 84 1014.8
20260508074604 44 247 0.0 0.0 0.00 0.02 0.02 85 1014.8
20260508074055 44 247 0.0 0.0 0.00 0.02 0.02 85 1014.9
20260508073557 44 247 0.0 0.0 0.00 0.02 0.02 85 1014.9
20260508073058 44 247 0.0 0.0 0.00 0.02 0.02 85 1014.9
20260508072555 44 247 0.0 0.0 0.00 0.02 0.02 84 1014.9
20260508072052 44 247 0.0 0.0 0.00 0.02 0.02 84 1014.9
20260508071551 44 247 0.0 0.0 0.00 0.02 0.02 84 1014.9
20260508071051 44 247 0.0 0.0 0.00 0.02 0.02 84 1014.9
20260508070550 45 247 0.0 0.0 0.00 0.02 0.02 84 1015.0
20260508070052 45 247 0.0 0.0 0.00 0.02 0.02 83 1015.0
20260508065549 45 247 0.0 0.0 0.00 0.02 0.02 83 1015.0
20260508065046 45 247 0.0 0.0 0.00 0.02 0.02 83 1015.1
20260508064555 46 247 0.0 0.0 0.00 0.02 0.02 83 1015.2
20260508064045 46 247 0.0 0.0 0.00 0.02 0.02 83 1015.2
20260508063545 46 247 0.0 0.0 0.00 0.02 0.02 83 1015.1
20260508063044 46 247 0.0 0.0 0.00 0.02 0.02 83 1015.1
20260508062543 46 247 0.0 0.0 0.01 0.02 0.02 83 1015.0
20260508062042 46 247 0.0 0.0 0.01 0.02 0.02 82 1015.2
20260508061543 46 247 0.0 0.0 0.02 0.02 0.02 82 1015.2
20260508061045 47 247 0.0 0.0 0.02 0.02 0.02 82 1015.2
20260508060541 47 247 0.0 0.0 0.02 0.02 0.02 82 1015.2
20260508060040 47 247 0.0 0.0 0.02 0.02 0.02 82 1015.2
20260508055540 47 247 0.0 0.0 0.02 0.02 0.02 82 1015.2
20260508055039 47 247 0.0 0.0 0.02 0.02 0.02 81 1015.5
20260508054546 47 256 0.0 1.0 0.02 0.02 0.02 81 1015.7
20260508054041 47 256 0.0 1.0 0.02 0.02 0.02 80 1016.0
20260508053537 47 288 0.0 3.0 0.02 0.02 0.02 79 1016.1
20260508053041 48 232 0.0 3.0 0.01 0.01 0.01 79 1016.2
20260508052536 48 290 0.0 1.0 0.01 0.01 0.01 78 1016.4
20260508052036 48 291 0.0 8.0 0.01 0.01 0.01 78 1016.7
20260508051539 48 300 0.0 16.0 0.00 0.00 0.00 78 1016.7
20260508051035 48 344 2.0 16.0 0.00 0.00 0.00 77 1016.7
20260508050534 48 348 0.0 1.0 0.00 0.00 0.00 77 1016.5
20260508050043 48 327 0.0 0.0 0.00 0.00 0.00 77 1016.1
20260508045531 48 323 0.0 0.0 0.00 0.00 0.00 77 1015.8
20260508045031 48 323 0.0 0.0 0.00 0.00 0.00 75 1015.5
20260508044533 48 323 0.0 0.0 0.00 0.00 0.00 75 1015.4
20260508044031 48 323 0.0 0.0 0.00 0.00 0.00 75 1015.3
20260508043529 48 323 0.0 0.0 0.00 0.00 0.00 75 1015.4
20260508043029 48 323 0.0 0.0 0.00 0.00 0.00 75 1015.4
20260508042528 48 323 0.0 0.0 0.00 0.00 0.00 75 1015.3
20260508042027 48 323 0.0 0.0 0.00 0.00 0.00 75 1015.4
20260508041527 48 323 0.0 0.0 0.00 0.00 0.00 75 1015.6
20260508041026 49 323 0.0 0.0 0.00 0.00 0.00 75 1015.6
20260508040528 49 323 0.0 0.0 0.00 0.00 0.00 75 1015.6
20260508040039 49 323 0.0 0.0 0.00 0.00 0.00 75 1015.7
20260508035523 49 323 0.0 0.0 0.00 0.00 0.00 74 1015.7
20260508035028 49 323 0.0 0.0 0.00 0.00 0.00 74 1015.7
20260508034536 49 323 0.0 0.0 0.00 0.00 0.00 73 1015.6
20260508034024 49 323 0.0 0.0 0.00 0.00 0.00 73 1015.6
20260508033523 49 323 0.0 0.0 0.00 0.00 0.00 71 1015.5
20260508033022 50 323 0.0 0.0 0.00 0.00 0.00 70 1015.6
20260508032523 50 323 0.0 0.0 0.00 0.00 0.00 69 1015.7
20260508032026 50 323 0.0 0.0 0.00 0.00 0.00 68 1015.5
20260508031523 50 323 0.0 0.0 0.00 0.00 0.00 68 1015.6
20260508031025 50 323 0.0 0.0 0.00 0.00 0.00 67 1015.7
20260508030522 50 323 0.0 0.0 0.00 0.00 0.00 65 1015.6
20260508030023 50 323 0.0 0.0 0.00 0.00 0.00 65 1015.6
20260508025521 50 323 0.0 0.0 0.00 0.00 0.00 63 1015.5
20260508025021 50 323 0.0 1.0 0.00 0.00 0.00 64 1015.7
20260508024525 50 263 0.0 1.0 0.00 0.00 0.00 67 1015.8
20260508024021 50 277 0.0 0.0 0.00 0.00 0.00 63 1015.7
20260508023521 50 277 0.0 0.0 0.00 0.00 0.00 64 1015.9
20260508023020 50 277 0.0 0.0 0.00 0.00 0.00 63 1015.9
20260508022520 50 277 0.0 0.0 0.00 0.00 0.00 64 1015.9
20260508022020 51 277 0.0 0.0 0.00 0.00 0.00 62 1015.7
20260508021520 51 277 0.0 0.0 0.00 0.00 0.00 60 1015.6
20260508021019 51 277 0.0 0.0 0.00 0.00 0.00 61 1015.6
20260508020521 51 269 0.0 0.0 0.00 0.00 0.00 60 1015.7
20260508020019 51 262 0.0 0.0 0.00 0.00 0.00 62 1015.6
20260508015519 51 262 0.0 0.0 0.00 0.00 0.00 58 1015.6
20260508015019 51 262 0.0 0.0 0.00 0.00 0.00 58 1015.6
20260508014519 52 262 0.0 0.0 0.00 0.00 0.00 57 1015.5
20260508014019 52 262 0.0 0.0 0.00 0.00 0.00 57 1015.4
20260508013518 52 261 0.0 0.0 0.00 0.00 0.00 56 1015.6
20260508013018 52 261 0.0 0.0 0.00 0.00 0.00 55 1015.5
20260508012518 52 261 0.0 0.0 0.00 0.00 0.00 56 1015.5
20260508012018 52 261 0.0 1.0 0.00 0.00 0.00 57 1015.6
20260508011519 53 259 0.0 2.0 0.00 0.00 0.00 55 1015.7
20260508011018 53 253 0.0 2.0 0.00 0.00 0.00 53 1015.5
20260508010518 53 259 0.0 1.0 0.00 0.00 0.00 53 1015.4
20260508010020 53 245 0.0 0.0 0.00 0.00 0.00 53 1015.4
20260508005517 53 263 0.0 2.0 0.00 0.00 0.00 52 1015.4
20260508005020 53 278 0.0 8.0 0.00 0.00 0.00 51 1015.5
20260508004520 53 298 1.0 8.0 0.00 0.00 0.00 49 1015.5
20260508004017 53 300 0.0 0.0 0.00 0.00 0.00 51 1015.5
20260508003521 53 279 0.0 0.0 0.00 0.00 0.00 49 1015.4
20260508003016 53 308 0.0 0.0 0.00 0.00 0.00 50 1015.4
20260508002516 53 289 0.0 0.0 0.00 0.00 0.00 52 1015.4
20260508002016 53 262 0.0 3.0 0.00 0.00 0.00 51 1015.4
20260508001516 53 261 0.0 3.0 0.00 0.00 0.00 53 1015.4
20260508001016 54 275 0.0 0.0 0.00 0.00 0.00 51 1015.4
20260508000519 54 267 0.0 0.0 0.00 0.00 0.00 50 1015.2
20260508000015 54 256 0.0 0.0 0.00 0.00 0.00 50 1015.2
20260507235517 54 252 0.0 0.0 0.00 0.00 0.00 50 1015.2
20260507235015 54 263 0.0 1.0 0.00 0.00 0.00 47 1015.0
20260507234527 54 271 0.0 0.0 0.00 0.00 0.00 49 1015.0
20260507234015 55 274 0.0 0.0 0.00 0.00 0.00 50 1014.9
20260507233515 55 292 0.0 0.0 0.00 0.00 0.00 47 1014.9
20260507233018 55 267 0.0 0.0 0.00 0.00 0.00 45 1014.8
20260507232515 55 254 0.0 0.0 0.00 0.00 0.00 45 1014.8
20260507232013 55 267 0.0 1.0 0.00 0.00 0.00 48 1014.9
20260507231513 55 287 0.0 1.0 0.00 0.00 0.00 46 1014.8
20260507231013 55 316 0.0 1.0 0.00 0.00 0.00 45 1015.0
20260507230513 55 266 0.0 9.0 0.00 0.00 0.00 45 1015.0
20260507230016 55 284 1.0 9.0 0.00 0.00 0.00 45 1015.0
20260507225512 55 298 0.0 0.0 0.00 0.00 0.00 43 1015.1
20260507225012 56 242 0.0 0.0 0.00 0.00 0.00 46 1015.0
20260507224513 56 262 0.0 1.0 0.00 0.00 0.00 45 1015.0
20260507224012 57 299 0.0 3.0 0.00 0.00 0.00 43 1015.1
20260507223513 57 277 0.0 3.0 0.00 0.00 0.00 44 1015.1
20260507223012 56 11 0.0 0.0 0.00 0.00 0.00 44 1015.1
20260507222511 56 344 0.0 1.0 0.00 0.00 0.00 44 1015.1
20260507222011 56 330 0.0 1.0 0.00 0.00 0.00 44 1015.3
20260507221511 56 337 0.0 1.0 0.00 0.00 0.00 46 1015.3
20260507221011 56 304 0.0 2.0 0.00 0.00 0.00 44 1015.3
20260507220511 56 360 0.0 2.0 0.00 0.00 0.00 43 1015.4
20260507220010 56 293 0.0 2.0 0.00 0.00 0.00 44 1015.3
20260507215510 56 291 0.0 10.0 0.00 0.00 0.00 45 1015.4
20260507215011 56 292 0.0 10.0 0.00 0.00 0.00 42 1015.3
20260507214509 57 316 0.0 14.0 0.00 0.00 0.00 43 1015.2
20260507214010 58 284 2.0 14.0 0.00 0.00 0.00 43 1015.1
20260507213510 58 323 1.0 11.0 0.00 0.00 0.00 41 1015.1
20260507213016 57 331 2.0 13.0 0.00 0.00 0.00 42 1015.2
20260507212508 58 338 2.0 13.0 0.00 0.00 0.00 40 1015.1
20260507212008 57 309 0.0 15.0 0.00 0.00 0.00 46 1015.1
20260507211508 58 281 2.0 13.0 0.00 0.00 0.00 44 1015.1
20260507211008 57 329 0.0 15.0 0.00 0.00 0.00 44 1015.1
20260507210507 57 319 6.0 15.0 0.00 0.00 0.00 43 1015.2
20260507210007 58 348 6.0 16.0 0.00 0.00 0.00 44 1015.1
20260507205507 57 336 6.0 16.0 0.00 0.00 0.00 45 1015.1
20260507205007 57 321 1.0 14.0 0.00 0.00 0.00 45 1015.0
20260507204507 57 337 9.0 14.0 0.00 0.00 0.00 46 1015.1
20260507204007 57 335 3.0 13.0 0.00 0.00 0.00 44 1015.0
20260507203509 56 319 4.0 13.0 0.00 0.00 0.00 46 1015.0
20260507203005 56 333 0.0 16.0 0.00 0.00 0.00 45 1015.1
20260507202504 56 355 3.0 16.0 0.00 0.00 0.00 46 1015.1
20260507202106 57 318 9.0 16.0 0.00 0.00 0.00 45 1015.1
20260507201506 56 338 0.0 16.0 0.00 0.00 0.00 47 1015.2
20260507201003 57 346 4.0 15.0 0.00 0.00 0.00 43 1015.0
20260507200503 57 331 4.0 14.0 0.00 0.00 0.00 45 1015.3
20260507200003 57 325 10.0 14.0 0.00 0.00 0.00 45 1015.4
20260507195502 58 339 0.0 12.0 0.00 0.00 0.00 44 1015.3
20260507195004 58 9 3.0 12.0 0.00 0.00 0.00 43 1015.3
20260507194502 57 15 1.0 19.0 0.00 0.00 0.00 47 1015.3
20260507194001 57 304 6.0 19.0 0.00 0.00 0.00 45 1015.4
20260507193601 57 340 3.0 15.0 0.00 0.00 0.00 49 1015.3
20260507193100 56 336 8.0 13.0 0.00 0.00 0.00 48 1015.5
20260507192600 56 319 1.0 15.0 0.00 0.00 0.00 44 1015.5
20260507192059 57 325 6.0 15.0 0.00 0.00 0.00 42 1015.6
20260507191600 57 319 3.0 17.0 0.00 0.00 0.00 46 1015.5
20260507191057 56 331 3.0 17.0 0.00 0.00 0.00 46 1015.5
20260507190556 56 322 3.0 17.0 0.00 0.00 0.00 47 1015.5
20260507190107 56 360 1.0 19.0 0.00 0.00 0.00 50 1015.5
20260507185554 56 312 14.0 21.0 0.00 0.00 0.00 47 1015.6